This demonstration page uses our WeatherBlox Daily Observations layout. Learn more.

Left ArrowRight Arrow

Hourly Observations for July 24, 2016

Temp ( °F °C ) Dew Point ( °F °C ) Humidity (%) Winds ( mph kmh ) Pressure ( in mb ) Visibility ( mi km ) Precip ( " mm )
12:59 am 00:59 Mostly Clear 83 28.3 75 23.9 77 77 SW 10 17 29.98 1015 9 14 0.00 0.00
1:59 am 01:59 Mostly Clear 82 27.8 75 23.9 79 79 SW 10 17 29.98 1015 9 14 0.00 0.00
2:59 am 02:59 Mostly Cloudy 81 27.2 74 23.3 79 79 SW 8 13 29.97 1015 9 14 0.00 0.00
3:59 am 03:59 Partly Cloudy 80 26.7 74 23.3 82 82 SW 9 15 29.96 1015 9 14 0.00 0.00
4:59 am 04:59 Partly Cloudy 80 26.7 74 23.3 82 82 WSW 3 6 29.97 1015 9 14 0.00 0.00
5:59 am 05:59 Partly Cloudy 79 26.1 73 22.8 82 82 SW 7 11 29.98 1015 8 13 0.00 0.00
6:59 am 06:59 Partly Cloudy 80 26.7 73 22.8 79 79 SW 7 11 29.99 1016 8 13 0.00 0.00
7:59 am 07:59 Partly Cloudy 82 27.8 74 23.3 77 77 WSW 7 11 29.99 1016 8 13 0.00 0.00
8:59 am 08:59 Mostly Cloudy 85 29.4 75 23.9 72 72 WSW 6 9 30.00 1016 8 13 0.00 0.00
9:59 am 09:59 Mostly Cloudy 87 30.6 75 23.9 67 67 W 8 13 29.99 1016 7 11 0.00 0.00
10:59 am 10:59 Mostly Cloudy 90 32.2 76 24.4 63 63 WSW 7 11 30.00 1016 8 13 0.00 0.00
11:59 am 11:59 Mostly Cloudy 93 33.9 74 23.3 54 54 W 9 15 30.00 1016 8 13 0.00 0.00
12:59 pm 12:59 Mostly Cloudy 94 34.4 75 23.9 54 54 W 10 17 30.00 1016 8 13 0.00 0.00
1:59 pm 13:59 Mostly Cloudy 97 36.1 74 23.3 48 48 SSW 9 15 29.99 1016 9 14 0.00 0.00
2:59 pm 14:59 Mostly Cloudy 98 36.7 73 22.8 45 45 Calm 29.98 1015 9 14 0.00 0.00
3:59 pm 15:59 Mostly Cloudy 97 36.1 71 21.7 43 43 NW 6 9 29.97 1015 9 14 0.00 0.00
4:59 pm 16:59 Mostly Cloudy 93 33.9 74 23.3 54 54 E 10 17 29.97 1015 8 13 0.00 0.00
5:59 pm 17:59 Mostly Cloudy 94 34.4 75 23.9 54 54 E 7 11 29.96 1015 8 13 0.00 0.00
6:59 pm 18:59 Mostly Cloudy 93 33.9 75 23.9 56 56 VRB 3 6 29.97 1015 8 13 0.00 0.00
7:59 pm 19:59 Mostly Cloudy 91 32.8 73 22.8 56 56 SSW 8 13 29.97 1015 9 14 0.00 0.00
8:59 pm 20:59 Mostly Cloudy 88 31.1 74 23.3 63 63 SW 5 7 29.99 1016 10 16 0.00 0.00
9:59 pm 21:59 Partly Cloudy 88 31.1 74 23.3 63 63 SW 8 13 30.01 1016 10 16 0.00 0.00
10:59 pm 22:59 Partly Cloudy 86 30 74 23.3 67 67 SW 5 7 30.02 1017 9 14 0.00 0.00
11:59 pm 23:59 Partly Cloudy 85 29.4 74 23.3 70 70 SSW 6 9 30.01 1016 9 14 0.00 0.00

Powered by AerisWeather